Location: Carson
(33.8314°N, 118.2820°W)
Time: 12:31:58
(UTC+00:00)

SL-4 R/B - Pass Details

Date: 23 November 2020
Orbit: 428 x 664 km, 51.6° (Epoch: 21 January)

Event Time Altitude Azimuth Distance (km) Brightness Sun altitude
Exits shadow 12:50:38 20° 3° (N) 1,251 3.7 -21.1°
Drops below altitude 10° 12:52:16 10° 23° (NNE) 1,712 4.7 -20.8°
Sets 12:54:38 0° 37° (NE) 2,554 5.8 -20.3°
